EW1617 Weather Reports


Display with metric or nautical units.
time (UTC)temp
F
wind
direction
speed
MPH
gust
MPH
rain 1hr
in
rain 24hr
in
rain mn
in
humidity
%
barometer
mb
20260902003007 70 162 5.0 9.0 0.00 0.00 0.00 66 1010.5
20260902002507 70 135 5.0 6.0 0.00 0.00 0.00 65 1010.5
20260902002007 71 81 3.0 5.0 0.00 0.00 0.00 64 1010.5
20260902001507 71 225 7.0 9.0 0.00 0.00 0.00 63 1010.5
20260902001007 72 135 7.0 9.0 0.00 0.00 0.00 61 1010.5
20260902000507 72 81 5.0 10.0 0.00 0.00 0.00 62 1010.5
20260902000007 72 198 7.0 8.0 0.00 0.00 0.00 63 1010.5
20260901235507 72 180 6.0 8.0 0.00 0.00 0.00 63 1010.5
20260901235007 72 126 5.0 7.0 0.00 0.00 0.00 63 1010.6
20260901234507 72 162 4.0 6.0 0.00 0.00 0.00 66 1010.6
20260901234007 71 171 6.0 8.0 0.00 0.00 0.00 65 1010.8
20260901233507 72 144 6.0 9.0 0.00 0.00 0.00 66 1010.8
20260901233007 71 162 6.0 6.0 0.00 0.00 0.00 66 1010.8
20260901232506 71 126 7.0 9.0 0.00 0.00 0.00 67 1010.8
20260901232007 71 153 6.0 8.0 0.00 0.00 0.00 66 1010.8
20260901231507 71 171 5.0 8.0 0.00 0.00 0.00 66 1010.8
20260901231007 71 135 5.0 6.0 0.00 0.00 0.00 67 1011.0
20260901230507 71 144 6.0 7.0 0.00 0.00 0.00 66 1011.0
20260901230008 71 144 5.0 6.0 0.00 0.00 0.00 67 1011.1
20260901225507 72 126 6.0 9.0 0.00 0.00 0.00 64 1011.0
20260901225006 72 153 7.0 8.0 0.00 0.00 0.00 64 1011.2
20260901224507 72 153 5.0 5.0 0.00 0.00 0.00 67 1011.2
20260901224007 72 144 6.0 8.0 0.00 0.00 0.00 67 1011.2
20260901223507 72 153 6.0 8.0 0.00 0.00 0.00 67 1011.2
20260901223007 72 126 5.0 6.0 0.00 0.00 0.00 69 1011.2
20260901222507 71 126 5.0 6.0 0.00 0.00 0.00 72 1011.2
20260901222006 69 252 4.0 6.0 0.00 0.00 0.00 76 1011.2
20260901221507 69 144 5.0 7.0 0.00 0.00 0.00 79 1011.2
20260901221007 68 144 2.0 6.0 0.00 0.00 0.00 80 1011.2
20260901220507 68 162 3.0 6.0 0.00 0.00 0.00 81 1011.2
20260901220007 68 135 4.0 5.0 0.00 0.00 0.00 81 1011.2
20260901215506 67 162 4.0 8.0 0.00 0.00 0.00 82 1011.2
20260901215007 67 162 6.0 8.0 0.00 0.00 0.00 82 1011.2
20260901214507 67 135 2.0 6.0 0.00 0.00 0.00 82 1011.2
20260901214007 68 198 2.0 5.0 0.00 0.00 0.00 83 1011.2
20260901213507 67 243 3.0 4.0 0.00 0.00 0.00 83 1011.2
20260901213007 67 135 3.0 7.0 0.00 0.00 0.00 82 1011.2
20260901212507 67 144 3.0 6.0 0.00 0.00 0.00 83 1011.2
20260901212007 67 126 3.0 5.0 0.00 0.00 0.00 82 1011.2
20260901211507 67 162 5.0 7.0 0.00 0.00 0.00 81 1011.2
20260901211007 68 135 4.0 5.0 0.00 0.00 0.00 82 1011.2
20260901210507 67 126 5.0 8.0 0.00 0.00 0.00 83 1011.2
20260901210007 67 108 3.0 5.0 0.00 0.00 0.00 83 1011.2
20260901205507 67 171 6.0 7.0 0.00 0.00 0.00 81 1011.2
20260901205007 67 117 6.0 7.0 0.00 0.00 0.00 82 1011.2
20260901204507 67 117 7.0 11.0 0.00 0.00 0.00 81 1011.2
20260901204007 67 135 3.0 5.0 0.00 0.00 0.00 82 1011.4
20260901203507 67 144 6.0 8.0 0.00 0.00 0.00 82 1011.5
20260901203007 67 189 7.0 8.0 0.00 0.00 0.00 83 1011.4
20260901202508 67 146 4.0 8.0 0.00 0.00 0.00 85 1011.5
20260901202007 67 171 6.0 8.0 0.00 0.00 0.00 84 1011.5
20260901201507 67 189 4.0 7.0 0.00 0.00 0.00 85 1011.5
20260901201007 68 135 6.0 7.0 0.00 0.00 0.00 84 1011.5
20260901200506 68 153 5.0 8.0 0.00 0.00 0.00 82 1011.5
20260901200008 68 153 4.0 8.0 0.00 0.00 0.00 83 1011.5
20260901195507 69 162 3.0 8.0 0.00 0.00 0.00 79 1011.5
20260901195007 69 171 7.0 8.0 0.00 0.00 0.00 76 1011.5
20260901194507 70 171 3.0 5.0 0.00 0.00 0.00 77 1011.5
20260901194007 70 135 2.0 5.0 0.00 0.00 0.00 79 1011.5
20260901193507 70 180 2.0 5.0 0.00 0.00 0.00 77 1011.5
20260901193007 70 214 5.0 5.0 0.00 0.00 0.00 81 1011.7
20260901192507 69 207 3.0 6.0 0.00 0.00 0.00 87 1011.5
20260901192006 68 36 3.0 6.0 0.00 0.00 0.00 91 1011.9
20260901191507 67 180 5.0 7.0 0.00 0.00 0.00 91 1011.9
20260901191007 67 117 5.0 10.0 0.00 0.00 0.00 90 1011.9
20260901190507 67 144 4.0 8.0 0.00 0.00 0.00 89 1011.9
20260901190007 67 162 6.0 7.0 0.00 0.00 0.00 89 1011.9
20260901185507 67 99 6.0 7.0 0.00 0.00 0.00 92 1011.9
20260901185007 67 144 3.0 5.0 0.00 0.00 0.00 93 1012.0
20260901184507 66 198 4.0 5.0 0.00 0.00 0.00 93 1012.2
20260901184007 65 81 4.0 6.0 0.00 0.00 0.00 94 1012.2
20260901183507 64 144 5.0 7.0 0.00 0.00 0.00 94 1012.2
20260901183006 64 135 6.0 10.0 0.00 0.00 0.00 94 1012.2
20260901182508 64 153 5.0 9.0 0.00 0.00 0.00 95 1012.2
20260901182007 64 135 3.0 5.0 0.00 0.00 0.00 95 1012.2
20260901181507 64 171 4.0 6.0 0.00 0.00 0.00 96 1012.2
20260901181007 63 171 4.0 5.0 0.00 0.00 0.00 96 1012.2
20260901180507 63 144 5.0 8.0 0.00 0.00 0.00 96 1012.2
20260901180008 62 162 4.0 5.0 0.00 0.00 0.00 97 1012.2
20260901175507 62 135 3.0 5.0 0.00 0.00 0.00 98 1012.2
20260901175007 61 135 1.0 3.0 0.00 0.00 0.00 98 1012.2
20260901174507 61 144 3.0 7.0 0.00 0.00 0.00 98 1012.3
20260901174008 61 158 7.0 7.0 0.00 0.00 0.00 98 1012.2
20260901173507 60 162 3.0 6.0 0.00 0.00 0.00 98 1012.2
20260901173007 60 153 5.0 8.0 0.00 0.00 0.00 98 1012.2
20260901172507 60 135 5.0 6.0 0.00 0.00 0.00 99 1012.2
20260901172006 60 171 5.0 7.0 0.00 0.00 0.00 99 1012.2
20260901171507 60 199 6.0 8.0 0.00 0.00 0.00 99 1012.2
20260901171007 60 135 7.0 8.0 0.00 0.00 0.00 99 1012.2
20260901170507 59 135 5.0 9.0 0.00 0.00 0.00 99 1012.2
20260901170007 59 144 6.0 9.0 0.00 0.00 0.00 99 1012.2
20260901165506 60 144 7.0 8.0 0.00 0.00 0.00 99 1012.2
20260901165007 60 153 5.0 8.0 0.00 0.00 0.00 98 1012.0
20260901164507 60 135 6.0 8.0 0.00 0.00 0.00 98 1011.9
20260901164007 60 144 3.0 7.0 0.00 0.00 0.00 98 1012.0
20260901163506 60 99 6.0 10.0 0.00 0.00 0.00 98 1012.2
20260901163007 60 171 4.0 7.0 0.00 0.00 0.00 98 1012.2
20260901162507 60 162 6.0 9.0 0.00 0.00 0.00 97 1012.2
20260901162007 60 126 5.0 7.0 0.00 0.00 0.00 97 1011.9
20260901161506 60 135 4.0 7.0 0.00 0.00 0.00 97 1011.9
20260901161007 60 144 5.0 7.0 0.00 0.00 0.00 97 1011.9
20260901160507 60 135 4.0 7.0 0.00 0.00 0.00 97 1011.9
20260901160007 60 135 3.0 5.0 0.00 0.00 0.00 97 1011.9
20260901155507 60 90 4.0 5.0 0.00 0.00 0.00 97 1011.9
20260901155007 60 162 3.0 5.0 0.00 0.00 0.00 96 1011.9
20260901154507 60 180 5.0 7.0 0.00 0.00 0.00 96 1011.9
20260901154006 60 144 4.0 7.0 0.00 0.00 0.00 96 1011.9
20260901153507 60 153 4.0 6.0 0.00 0.00 0.00 96 1011.9
20260901153007 60 171 3.0 6.0 0.00 0.00 0.00 96 1011.9
20260901152507 60 108 4.0 5.0 0.00 0.00 0.00 96 1011.9
20260901152007 60 135 4.0 7.0 0.00 0.00 0.00 96 1011.9
20260901151507 60 126 4.0 5.0 0.00 0.00 0.00 96 1011.7
20260901151007 60 144 4.0 8.0 0.00 0.00 0.00 96 1011.6
20260901150507 60 144 6.0 8.0 0.00 0.00 0.00 96 1011.6
20260901150007 60 144 5.0 6.0 0.00 0.00 0.00 96 1011.5
20260901145507 60 162 2.0 7.0 0.00 0.00 0.00 96 1011.5
20260901145006 60 180 1.0 3.0 0.00 0.00 0.00 96 1011.5
20260901144508 60 153 6.0 7.0 0.00 0.00 0.00 96 1011.5
20260901144007 60 135 5.0 8.0 0.00 0.00 0.00 96 1011.5
20260901143506 60 162 3.0 8.0 0.00 0.00 0.00 96 1011.5
20260901143008 60 153 4.0 8.0 0.00 0.00 0.00 96 1011.5
20260901142506 60 81 2.0 5.0 0.00 0.00 0.00 96 1011.5
20260901142007 60 126 1.0 3.0 0.00 0.00 0.00 96 1011.5
20260901141507 60 171 4.0 9.0 0.00 0.00 0.00 96 1011.5
20260901141007 60 135 2.0 5.0 0.00 0.00 0.00 96 1011.5
20260901140507 60 180 3.0 4.0 0.00 0.00 0.00 96 1011.5
20260901140007 60 180 2.0 6.0 0.00 0.00 0.00 96 1011.5
20260901135507 60 146 2.0 5.0 0.00 0.00 0.00 96 1011.5
20260901135007 60 162 1.0 2.0 0.00 0.00 0.00 96 1011.3
20260901134507 60 135 2.0 5.0 0.00 0.00 0.00 96 1011.2
20260901134007 60 135 3.0 5.0 0.00 0.00 0.00 96 1011.2
20260901133506 60 135 0.0 3.0 0.00 0.00 0.00 96 1011.2
20260901133007 60 144 1.0 3.0 0.00 0.00 0.00 96 1011.3
20260901132507 60 180 0.0 0.0 0.00 0.00 0.00 96 1011.2
20260901132007 60 171 0.0 1.0 0.00 0.00 0.00 96 1011.2
20260901131507 60 135 0.0 1.0 0.00 0.00 0.00 96 1011.2
20260901131006 59 135 0.0 1.0 0.00 0.00 0.00 96 1011.2
20260901130507 59 135 1.0 5.0 0.00 0.00 0.00 96 1011.2
20260901130007 59 135 1.0 2.0 0.00 0.00 0.00 96 1011.2
20260901125507 59 135 1.0 5.0 0.00 0.00 0.00 96 1011.2
20260901125007 59 135 1.0 3.0 0.00 0.00 0.00 96 1011.2
20260901124507 59 135 1.0 4.0 0.00 0.00 0.00 96 1011.2
20260901124007 59 153 1.0 5.0 0.00 0.00 0.00 96 1011.2
20260901123507 59 180 1.0 3.0 0.00 0.00 0.00 96 1011.2
20260901123007 59 81 3.0 5.0 0.00 0.00 0.00 96 1011.2
20260901122506 59 144 5.0 5.0 0.00 0.00 0.00 96 1011.2
20260901122007 59 162 2.0 5.0 0.00 0.00 0.00 96 1011.2
20260901121507 59 135 2.0 6.0 0.00 0.00 0.00 96 1011.2
20260901121012 59 171 5.0 6.0 0.00 0.00 0.00 96 1011.2
20260901120507 59 108 2.0 5.0 0.00 0.00 0.00 96 1011.2
20260901120007 59 153 2.0 5.0 0.00 0.00 0.00 96 1011.2
20260901115507 59 135 3.0 6.0 0.00 0.00 0.00 96 1011.2
20260901115007 59 135 2.0 5.0 0.00 0.00 0.00 96 1011.2
20260901114507 59 153 4.0 5.0 0.00 0.00 0.00 96 1011.2
20260901114007 59 162 3.0 5.0 0.00 0.00 0.00 96 1011.2
20260901113507 59 135 4.0 6.0 0.00 0.00 0.00 96 1011.2
20260901113007 59 153 6.0 6.0 0.00 0.00 0.00 96 1011.2
20260901112506 59 144 4.0 5.0 0.00 0.00 0.00 96 1011.2
20260901112007 59 153 4.0 6.0 0.00 0.00 0.00 96 1011.2
20260901111507 59 162 5.0 8.0 0.00 0.00 0.00 96 1011.1
20260901111007 59 144 5.0 5.0 0.00 0.00 0.00 96 1010.8
20260901110507 59 144 3.0 5.0 0.00 0.00 0.00 96 1011.1
20260901110007 59 153 4.0 7.0 0.00 0.00 0.00 96 1010.8
20260901105507 59 144 3.0 5.0 0.00 0.00 0.00 96 1010.8
20260901105006 59 162 3.0 6.0 0.00 0.00 0.00 96 1010.8
20260901104506 59 180 0.0 2.0 0.00 0.00 0.00 96 1010.8
20260901104008 59 144 3.0 5.0 0.00 0.00 0.00 96 1010.8
20260901103507 59 81 2.0 5.0 0.00 0.00 0.00 96 1010.8
20260901103007 59 135 2.0 5.0 0.00 0.00 0.00 96 1010.8
20260901102508 59 153 1.0 1.0 0.00 0.00 0.00 96 1010.8
20260901102007 59 135 1.0 5.0 0.00 0.00 0.00 96 1010.8
20260901101507 59 153 3.0 6.0 0.00 0.00 0.00 96 1010.8
20260901101007 60 99 2.0 6.0 0.00 0.00 0.00 96 1010.8
20260901100507 60 126 4.0 7.0 0.00 0.00 0.00 96 1010.8
20260901100007 60 126 5.0 8.0 0.00 0.00 0.00 95 1010.8
20260901095508 60 153 6.0 7.0 0.00 0.00 0.00 95 1010.7
20260901095007 60 144 3.0 7.0 0.00 0.00 0.00 95 1010.6
20260901094507 60 153 5.0 8.0 0.00 0.00 0.00 95 1010.5
20260901094007 60 144 7.0 10.0 0.00 0.00 0.00 95 1010.5
20260901093506 60 135 6.0 8.0 0.00 0.00 0.00 95 1010.5
20260901093007 60 144 6.0 8.0 0.00 0.00 0.00 95 1010.5
20260901092507 60 144 6.0 7.0 0.00 0.00 0.00 95 1010.5
20260901092007 60 153 5.0 6.0 0.00 0.00 0.00 95 1010.4
20260901091507 61 171 6.0 7.0 0.00 0.00 0.00 95 1010.2
20260901091007 61 144 7.0 9.0 0.00 0.00 0.00 95 1010.2
20260901090507 61 144 6.0 7.0 0.00 0.00 0.00 95 1010.2
20260901090007 61 135 6.0 7.0 0.00 0.00 0.00 95 1010.2
20260901085507 61 72 5.0 6.0 0.00 0.00 0.00 94 1010.2
20260901085006 61 153 7.0 8.0 0.00 0.00 0.00 94 1010.2
20260901084507 61 144 6.0 8.0 0.00 0.00 0.00 94 1010.2
20260901084008 61 153 3.0 5.0 0.00 0.00 0.00 94 1010.2
20260901083507 61 135 6.0 9.0 0.00 0.00 0.00 94 1010.2
20260901083007 61 153 7.0 9.0 0.00 0.00 0.00 94 1010.2
20260901082508 62 227 6.0 7.0 0.00 0.00 0.00 94 1010.2
20260901082008 62 162 6.0 9.0 0.00 0.00 0.00 94 1010.2
20260901081507 62 180 6.0 9.0 0.00 0.00 0.00 94 1010.2
20260901081007 62 126 6.0 10.0 0.00 0.00 0.00 94 1010.2
20260901080507 62 135 8.0 10.0 0.00 0.00 0.00 93 1010.2
20260901080006 63 153 7.0 9.0 0.00 0.00 0.00 93 1010.0
20260901075507 63 162 7.0 9.0 0.00 0.00 0.00 93 1009.8
20260901075008 63 153 7.0 8.0 0.00 0.00 0.00 93 1009.8
20260901074506 63 162 7.0 9.0 0.00 0.00 0.00 93 1009.8
20260901074007 63 153 8.0 9.0 0.00 0.00 0.00 93 1009.8
20260901073507 64 144 8.0 10.0 0.00 0.00 0.00 93 1009.8
20260901073007 64 180 6.0 8.0 0.00 0.00 0.00 92 1009.6
20260901072508 64 162 8.0 9.0 0.00 0.00 0.00 92 1009.5
20260901072007 64 153 6.0 8.0 0.00 0.00 0.00 92 1009.5
20260901071507 65 171 7.0 9.0 0.00 0.00 0.00 92 1009.5
20260901071007 65 144 8.0 10.0 0.00 0.00 0.00 92 1009.5
20260901070507 65 117 7.0 10.0 0.00 0.00 0.00 91 1009.5
20260901070007 65 126 7.0 10.0 0.00 0.00 0.00 91 1009.3
20260901065507 66 135 8.0 11.0 0.00 0.00 0.00 90 1009.1
20260901065007 66 171 7.0 8.0 0.00 0.00 0.00 88 1009.1
20260901064507 66 189 6.0 6.0 0.00 0.00 0.00 86 1009.1
20260901064006 66 171 4.0 6.0 0.00 0.00 0.00 84 1008.9
20260901063507 67 126 5.0 7.0 0.00 0.00 0.00 83 1008.8
20260901063007 67 108 6.0 6.0 0.00 0.00 0.00 82 1008.8
20260901062507 67 108 5.0 6.0 0.00 0.00 0.00 80 1008.7
20260901062007 67 153 2.0 5.0 0.00 0.00 0.00 79 1008.5
20260901061507 68 162 4.0 5.0 0.00 0.00 0.00 77 1008.5
20260901061007 68 171 5.0 6.0 0.00 0.00 0.00 76 1008.5
20260901060507 68 153 3.0 6.0 0.00 0.00 0.00 75 1008.5
20260901060007 68 135 3.0 9.0 0.00 0.00 0.00 75 1008.2
20260901055507 69 171 3.0 5.0 0.00 0.00 0.00 74 1008.1
20260901055007 69 153 4.0 5.0 0.00 0.00 0.00 74 1008.1
20260901054507 68 126 5.0 6.0 0.00 0.00 0.00 75 1008.1
20260901054007 68 189 2.0 5.0 0.00 0.00 0.00 75 1008.1
20260901053507 68 135 2.0 4.0 0.00 0.00 0.00 75 1008.1
20260901053007 68 135 0.0 0.0 0.00 0.00 0.00 76 1008.1
20260901052507 68 135 0.0 1.0 0.00 0.00 0.00 75 1008.1
20260901052007 68 135 0.0 0.0 0.00 0.00 0.00 77 1008.1
20260901051507 68 135 0.0 0.0 0.00 0.00 0.00 77 1008.1
20260901051007 68 135 0.0 0.0 0.00 0.00 0.00 77 1007.9
20260901050507 68 135 0.0 0.0 0.00 0.00 0.00 76 1007.8
20260901050007 68 135 0.0 0.0 0.00 0.00 0.00 74 1007.8
20260901045508 68 135 0.0 0.0 0.00 0.00 0.00 74 1007.8
20260901045006 69 135 0.0 0.0 0.00 0.00 0.00 73 1007.8
20260901044507 69 135 0.0 0.0 0.00 0.00 0.00 72 1007.8
20260901044007 69 135 0.0 0.0 0.00 0.00 0.00 72 1007.8
20260901043512 69 135 0.0 1.0 0.00 0.00 0.00 72 1007.8
20260901043006 69 135 0.0 0.0 0.00 0.00 0.00 73 1007.8
20260901042507 69 135 0.0 0.0 0.00 0.00 0.00 72 1007.5
20260901042007 69 135 0.0 0.0 0.00 0.00 0.00 71 1007.5
20260901041507 70 135 0.0 0.0 0.00 0.00 0.00 70 1007.5
20260901041007 70 135 0.0 0.0 0.00 0.00 0.00 69 1007.2
20260901040507 70 135 0.0 0.0 0.00 0.00 0.00 67 1007.1
20260901040006 71 135 0.0 0.0 0.00 0.00 0.00 65 1007.1
20260901035508 71 135 0.0 0.0 0.00 0.00 0.00 63 1007.1
20260901035007 71 135 0.0 0.0 0.00 0.00 0.00 62 1007.1
20260901034507 72 135 0.0 0.0 0.00 0.00 0.00 62 1007.1
20260901034006 72 135 0.0 0.0 0.00 0.00 0.00 60 1007.1
20260901033507 73 135 0.0 0.0 0.00 0.00 0.00 59 1006.8
20260901033007 74 135 0.0 0.0 0.00 0.00 0.00 57 1006.8
20260901032507 74 135 0.0 0.0 0.00 0.00 0.00 55 1006.6
20260901032007 75 135 0.0 0.0 0.00 0.00 0.00 53 1006.4
20260901031506 75 135 0.0 0.0 0.00 0.00 0.00 52 1006.4
20260901031007 76 135 0.0 0.0 0.00 0.00 0.00 51 1006.4
20260901030507 76 135 0.0 0.0 0.00 0.00 0.00 51 1006.4
20260901030007 77 135 0.0 0.0 0.00 0.00 0.00 50 1006.4
20260901025507 78 135 0.0 1.0 0.00 0.00 0.00 49 1006.4
20260901025007 78 135 0.0 0.0 0.00 0.00 0.00 48 1006.4
20260901024507 79 135 0.0 2.0 0.00 0.00 0.00 48 1006.4
20260901024007 79 135 2.0 6.0 0.00 0.00 0.00 47 1006.4
20260901023507 79 135 3.0 5.0 0.00 0.00 0.00 47 1006.4
20260901023006 80 162 1.0 2.0 0.00 0.00 0.00 47 1006.4
20260901022507 80 198 3.0 5.0 0.00 0.00 0.00 45 1006.4
20260901022007 81 135 5.0 6.0 0.00 0.00 0.00 45 1006.4
20260901021507 81 153 5.0 9.0 0.00 0.00 0.00 44 1006.4
20260901021007 81 171 8.0 9.0 0.00 0.00 0.00 44 1006.4
20260901020507 82 236 3.0 7.0 0.00 0.00 0.00 45 1006.4
20260901020007 82 264 3.0 7.0 0.00 0.00 0.00 45 1006.2
20260901015507 82 144 5.0 7.0 0.00 0.00 0.00 44 1006.1
20260901015007 83 208 7.0 7.0 0.00 0.00 0.00 43 1006.1
20260901014507 83 144 7.0 9.0 0.00 0.00 0.00 43 1006.1
20260901014007 83 135 6.0 9.0 0.00 0.00 0.00 43 1006.1
20260901013507 83 162 5.0 7.0 0.00 0.00 0.00 43 1006.1
20260901013007 83 126 5.0 7.0 0.00 0.00 0.00 43 1006.1
20260901012507 84 135 3.0 6.0 0.00 0.00 0.00 43 1006.1
20260901012007 84 135 4.0 7.0 0.00 0.00 0.00 42 1006.1
20260901011507 84 144 5.0 7.0 0.00 0.00 0.00 41 1006.1
20260901011007 85 171 6.0 7.0 0.00 0.00 0.00 40 1006.1
20260901010507 85 158 5.0 6.0 0.00 0.00 0.00 39 1006.1
20260901010007 85 117 6.0 7.0 0.00 0.00 0.00 39 1006.1
20260901005507 85 144 3.0 7.0 0.00 0.00 0.00 39 1006.1
20260901005008 86 144 4.0 6.0 0.00 0.00 0.00 39 1006.1
20260901004507 86 171 3.0 5.0 0.00 0.00 0.00 39 1006.1
20260901004007 86 135 6.0 8.0 0.00 0.00 0.00 38 1006.2
20260901003507 87 153 5.0 7.0 0.00 0.00 0.00 38 1006.3